User: anonymous   Login
Location: Home
(40.5300°N, 105.0300°W)
Time: 10:24:11
(UTC-06:00)
Language:

STARLINK-2666 - Orbit

View from above orbital plane
View from above orbital plane
View from above satellite
View from above satellite

Ground track
Ground track

The orbit data is extracted from the following two-line orbital elements,

1 48666U 21044AE  21264.50001157 -.00021880  00000-0 -14547-2 0  9999
2 48666  53.0529 229.8136 0001859  57.0367  47.4073 15.06394268 19030
Epoch (UTC): 21 September 2021 12:00:01
Eccentricity: 0.0001859
inclination: 53.0529°
perigee height: 546 km
apogee height: 548 km
right ascension of ascending node: 229.8136°
argument of perigee: 57.0367°
revolutions per day: 15.06394268
mean anomaly at epoch: 47.4073°
orbit number at epoch: 1903

The dashed part of the orbit path shows where the satellite is in the earth's shadow,  

DLR